Home > Weather > Springfield > Past weeks

Flag for USA Past Weather in Springfield, Illinois, USA — Yesterday and Last 2 Weeks

Now
73 °F

Overcast.


Feels Like: 71 °F
Forecast: 69 / 87 °F
Wind: No wind

Location: Capital Airport

Current Time: Jul 26, 2016 at 5:17:57 AM

Latest Report: Jul 26, 2016 at 4:52 AM


Visibility: 10 mi

Pressure: 30.02 "Hg

Humidity: 90%

Dew Point: 70 °F

Location of SpringfieldLocation

Past Weather in Springfield — Graph

°F

Springfield Temperature Yesterday

Maximum temperature yesterday: 86 °F (at 3:52 PM)
Minimum temperature yesterday: 73 °F (at 3:52 AM)
Average temperature yesterday: 78 °F

High & Low Weather Summary for the Past Weeks

 TemperatureHumidityPressure
High94 °F (Jul 21, 2:52 PM)97% (Jul 23, 5:52 AM)30.24 "Hg (Jul 23, 5:52 AM)
Low64 °F (Jul 16, 3:52 AM)47% (Jul 18, 3:52 PM)29.81 "Hg (Jul 13, 3:52 PM)
Average80 °F78%30.01 "Hg
* Reported Jul 11 3:52 AM — Jul 26 3:52 AM, Springfield, Weather by CustomWeather, © 2016

Note: Actual official high and low records may vary slightly from our data, if they occured in-between our weather recording intervals... More about our weather records

Advertising

Springfield Weather History for the Previous 24 Hours

Scroll right to see more
 ConditionsComfort  
Time TempWeatherWind HumidityBarometerVisibility
3:52 AM
Tue, Jul 26
73 °FPassing clouds.3 mph90%30.01 "Hg10 mi
2:52 AM73 °FPassing clouds.3 mph90%30.01 "Hg10 mi
1:52 AM73 °FPassing clouds.3 mph90%30.01 "Hg10 mi
12:52 AM73 °FPassing clouds.No wind90%30.01 "Hg10 mi
11:52 PM
Mon, Jul 25
73 °FClear.No wind94%30.02 "Hg10 mi
10:52 PM74 °FClear.No wind91%30.01 "Hg10 mi
9:52 PM76 °FClear.3 mph88%30.01 "Hg10 mi
8:52 PM77 °FSunny.5 mph85%30.00 "Hg10 mi
7:52 PM81 °FSunny.7 mph77%29.98 "Hg10 mi
6:52 PM84 °FPassing clouds.6 mph72%29.97 "Hg10 mi
5:52 PM86 °FSunny.6 mph70%29.97 "Hg10 mi
4:52 PM85 °FPartly sunny.7 mph70%29.98 "Hg10 mi
3:52 PM86 °FSunny.No wind67%29.98 "Hg10 mi
2:52 PM84 °FOvercast.3 mph70%29.99 "Hg10 mi
1:52 PM84 °FBroken clouds.5 mph70%30.01 "Hg10 mi
12:52 PM84 °FSunny.6 mph67%30.02 "Hg10 mi
11:52 AM82 °FSunny.5 mph70%30.03 "Hg10 mi
10:52 AM80 °FPassing clouds.3 mph76%30.03 "Hg10 mi
9:52 AM78 °FSunny.3 mph82%30.03 "Hg10 mi
8:52 AM76 °FSunny.6 mph88%30.01 "Hg10 mi
7:52 AM74 °FPassing clouds.9 mph94%29.95 "Hg10 mi
6:52 AM73 °FSunny.5 mph94%29.95 "Hg10 mi
5:52 AM73 °FClear.3 mph90%29.98 "Hg10 mi
Weather by CustomWeather, © 2016

See weather overviewHow to use our weather pages